Weather History for KAVL - August, 2008

Change the Weather History Date:

Tuesday, August 19, 2008

  Actual Average Record
Temperature  
Mean Temperature 75 °F 73 °F  
Max Temperature 91 °F 83 °F 96 °F (1983)
Min Temperature 59 °F 63 °F 51 °F (1896)
Degree Days  
Heating Degree Days 0 0  
Month to date heating degree days 0 0  
Since 1 June heating degree days 14  
Since 1 July heating degree days 1 0  
Cooling Degree Days 10 8  
Month to date cooling degree days 161 163  
Year to date cooling degree days 685 673  
Since 1 June cooling degree days 615  
Growing Degree Days 25 (Base 50)    
Moisture  
Dew Point 59 °F    
Average Humidity 62    
Maximum Humidity 100    
Minimum Humidity 23    
Precipitation  
Precipitation 0.00 in 0.14 in 1.38 in (2013)
Month to date precipitation 0.40 2.69  
Year to date precipitation 20.30 29.90  
Snow  
Snow 0.00 in 0.00 in 0.00 in ()
Month to date snowfall 0.0 0.0  
Since 1 June snowfall 0.0  
Since 1 July snowfall 0.0 0.0  
Snow Depth -    
Sea Level Pressure  
Sea Level Pressure 30.06 in    
Wind  
Wind Speed 3 mph (NW)    
Max Wind Speed 13 mph    
Max Gust Speed 17 mph    
Visibility 5 miles    
Events Fog    
T = Trace of Precipitation, MM = Missing Value Source: NWS Daily Summary

Daily Weather History Graph

Daily Weather History Graph

Search for Another Location

Airport or City:

Trip Planner

Search our weather history database for the weather conditions in past years. The results will help you decide how hot, cold, wet, or windy it might be!

Date:

Astronomy

Aug. 19, 2008 Rise Set
Actual Time 6:52 AM EDT 8:13 PM EDT
Civil Twilight 6:26 AM EDT 8:40 PM EDT
Nautical Twilight 5:54 AM EDT 9:12 PM EDT
Astronomical Twilight 5:20 AM EDT 9:45 PM EDT
Moon 9:36 PM EDT (8/19) 9:38 AM EDT (8/19)
Length of Visible Light 14h 14m
Length of Day
13h 20m
Waning Gibbous, 91% of the Moon is Illuminated
Aug 19
Waning Gibbous
Aug 23
Last Quarter
Aug 30
New
Sep 7
First Quarter
Sep 15
Full

Hourly Weather History & Observations

Time (EDT) Temp. Heat Index Dew Point Humidity Pressure Visibility Wind Dir Wind Speed Gust Speed Precip Events Conditions
12:54 AM 68.0 °F - 64.9 °F 90% 30.03 in 5.0 mi Calm Calm - N/A   Mostly Cloudy
1:54 AM 66.0 °F - 64.0 °F 93% 30.02 in 4.0 mi Calm Calm - N/A   Clear
2:54 AM 64.0 °F - 62.1 °F 93% 30.01 in 4.0 mi Calm Calm - N/A   Clear
3:54 AM 63.0 °F - 62.1 °F 97% 30.01 in 4.0 mi Calm Calm - N/A   Clear
4:36 AM 60.8 °F - 60.8 °F 100% 30.10 in 1.8 mi Calm Calm - N/A   Clear
4:54 AM 62.1 °F - 61.0 °F 96% 30.03 in 3.0 mi Calm Calm - N/A   Clear
5:13 AM 62.6 °F - 60.8 °F 94% 30.11 in 1.5 mi Calm Calm - N/A   Clear
5:20 AM 62.6 °F - 60.8 °F 94% 30.11 in 1.0 mi Calm Calm - N/A   Clear
5:26 AM 62.6 °F - 60.8 °F 94% 30.11 in 2.0 mi Calm Calm - N/A   Clear
5:35 AM 60.8 °F - 60.8 °F 100% 30.11 in 3.0 mi Calm Calm - N/A   Clear
5:54 AM 61.0 °F - 60.1 °F 97% 30.03 in 4.0 mi Calm Calm - N/A   Clear
6:28 AM 60.8 °F - 60.8 °F 100% 30.10 in 1.5 mi Calm Calm - N/A   Clear
6:30 AM 60.8 °F - 59.0 °F 94% 30.10 in 0.8 mi Calm Calm - N/A   Clear
6:34 AM 59.0 °F - 59.0 °F 100% 30.10 in 0.2 mi Calm Calm - N/A Fog Fog
6:45 AM 59.0 °F - 59.0 °F 100% 30.10 in 1.0 mi Calm Calm - N/A   Mist
6:47 AM 59.0 °F - 59.0 °F 100% 30.10 in 1.5 mi Calm Calm - N/A   Partly Cloudy
6:51 AM 59.0 °F - 59.0 °F 100% 30.10 in 0.8 mi Calm Calm - N/A   Mist
6:54 AM 59.0 °F - 59.0 °F 100% 30.04 in 0.5 mi Calm Calm - N/A Fog Fog
7:04 AM 59.0 °F - 59.0 °F 100% 30.11 in 1.2 mi Calm Calm - N/A   Partly Cloudy
7:11 AM 59.0 °F - 59.0 °F 100% 30.11 in 1.8 mi Calm Calm - N/A   Clear
7:18 AM 59.0 °F - 59.0 °F 100% 30.11 in 2.5 mi Calm Calm - N/A   Clear
7:38 AM 60.8 °F - 60.8 °F 100% 30.11 in 3.0 mi Calm Calm - N/A   Clear
7:54 AM 61.0 °F - 60.1 °F 97% 30.05 in 2.5 mi Calm Calm - N/A   Clear
8:00 AM 60.8 °F - 60.8 °F 100% 30.11 in 1.5 mi Calm Calm - N/A   Partly Cloudy
8:03 AM 60.8 °F - 60.8 °F 100% 30.11 in 1.0 mi Calm Calm - N/A   Mist
8:10 AM 62.6 °F - 60.8 °F 94% 30.11 in 2.0 mi Calm Calm - N/A   Partly Cloudy
8:54 AM 66.0 °F - 63.0 °F 90% 30.05 in 4.0 mi NNW 3.5 mph - N/A   Clear
9:54 AM 72.0 °F - 63.0 °F 73% 30.06 in 7.0 mi NNW 5.8 mph - N/A   Clear
10:54 AM 78.1 °F - 62.1 °F 58% 30.05 in 9.0 mi NW 5.8 mph - N/A   Clear
11:54 AM 82.9 °F 82.8 °F 59.0 °F 44% 30.04 in 10.0 mi NNW 5.8 mph - N/A   Clear
12:54 PM 84.9 °F 83.3 °F 54.0 °F 34% 30.02 in 10.0 mi WNW 9.2 mph 17.3 mph N/A   Clear
1:54 PM 87.1 °F - 48.9 °F 27% 30.00 in 10.0 mi NNW 8.1 mph - N/A   Clear
2:54 PM 89.6 °F - 46.4 °F 22% 30.08 in 10.0 mi Variable 6.9 mph - N/A   Scattered Clouds
3:54 PM 91.0 °F - 48.0 °F 23% 29.97 in 10.0 mi Variable 6.9 mph - N/A   Scattered Clouds
4:54 PM 84.9 °F 83.3 °F 54.0 °F 34% 29.98 in 10.0 mi Calm Calm - N/A   Mostly Cloudy
5:54 PM 84.0 °F 83.5 °F 57.9 °F 41% 29.98 in 10.0 mi Variable 4.6 mph - N/A   Mostly Cloudy
6:54 PM 81.0 °F 81.3 °F 59.0 °F 47% 29.99 in 10.0 mi SE 6.9 mph - N/A   Clear
7:54 PM 80.1 °F 80.7 °F 59.0 °F 48% 30.00 in 10.0 mi Variable 3.5 mph - N/A   Partly Cloudy
8:54 PM 73.0 °F - 60.1 °F 64% 30.02 in 10.0 mi WSW 3.5 mph - N/A   Partly Cloudy
9:54 PM 73.0 °F - 60.1 °F 64% 30.03 in 10.0 mi Calm Calm - N/A   Mostly Cloudy
10:54 PM 72.0 °F - 61.0 °F 68% 30.04 in 9.0 mi Calm Calm - N/A   Partly Cloudy
11:54 PM 69.1 °F - 63.0 °F 81% 30.05 in 7.0 mi Calm Calm - N/A   Clear